Showing default

TIANQI 16, 64058

Orbit data source: Space-Track

TIANQI 16, 64058 is a payload satellite owned by Guodian Gaokeji (CN) in LEO that was launched on Mon, 19 May 2025 UTC via a GUSHENXING 1 launch vehicle from the Yellow Sea Launch Area, China (YSLA). Payload-class satellites include a variety of spacecraft equipped with specific instruments for various scientific and technological missions. These include communications satellites like Starlink; space stations such as the ISS; scientific satellites like the Hubble; Earth observation satellites from companies like Planet Labs, Umbra, and HawkEye 360; GPS; miniature CubeSats for education and research; and military/defense satellites.

Loading next visibility...
Identifier
64058, 2025-105A
Orbit
LEO
Country
Flag of CNCN / PRC
Related business
Manufacturer
Shanghai ASES
Mission
Operational Commercial Communications
Bus & Motor
STARLIGHTB, Unknown motor
Mass
40 kg wet, ~40 kg dry
Launch date (UTC)
2025-05-19 (7 months ago)
Launch vehicle
GUSHENXING 1
Launch site
Yellow Sea Launch Area, China (YSLA)
Object type
Payload
Rocket body
Debris
Shape & HBR
Box, 0.3 m
Radar Cross Section
0.195 m², Medium (>0.1 m² and < 1m²)

Expand to show TLE details & history
Last TLE update: 19 hours ago

TLE from 19 hours ago
0 TIANQI 16
1 64058U 25105A   25348.82527602  .00000075  00000-0  13954-3 0  9997
2 64058  44.9829 122.5753 0011458 225.4138 134.5760 13.99065267 29375
Epoch: 2025-12-14T19:48Z
TLE epoch observation values (Epoch: 2025-12-14T19:48:23.848Z)
Latitude
-0°
Longitude
101.74329°
Altitude
902.886 km
Speed
7.399 km/s
True Right ascension
08h 10m 18s
True Declination
0° 00' 00"
Sunlit
Object was in full shadow at epoch
Visualization orbit readout
Latitude
Unknown
Longitude
Unknown
Altitude
Unknown
Speed
Unknown
Apparent Right ascension
Unknown
Apparent Declination
Unknown
Sunlit
N/A
Visualization observer readout
Local Sidereal Time
13:26:09
Azimuth
Unknown
Elevation
Unknown
Doppler factor
Unknown
Orbital elements
Apogee altitude
906.892 km
Perigee altitude
890.217 km
Semi-major axis
7,276.692 km
Eccentricity
0.00115
Inclination
44.9829°
RAAN
122.5753°
Arg. of periapsis
225.4138°
True anomaly
134.66943°
Mean anomaly
134.576°
Eccentric anomaly
134.62273°
Mean motion
3.49657 °/min
Orbital period
102.96 mins
BSTAR
0.00013954
Loading maneuver chart data...
Computing Atmospheric mass density...
Loading historical data...
Loading historical data...
Loading historical data...
Loading historical data...
Loading historical data...
Loading historical data...
Loading historical data...
Other satellites on launch #105 in the year 2025 (2025-05-19 UTC)

Documentation

Showing up to 5 results
|